Retour au catalogue

STARLINK-4263

ActifCommunicationsVLEO
NORAD 53010·PAYLOAD·🇺🇸 United States

Lancé Jul 7, 2022 depuis Cape Canaveral Space Force Station

Loading…

Prochains Passages (prochaines 24 heures)

TLE

FraisSource: CelesTrak SupGP

Époque: Sep 14, 2026, 22:17 UTC

1 53010C 22076AA  26257.92895833  .00012416  00000+0  36691-3 0  2573
2 53010  53.1574 310.1149 0001221  90.1975 318.1649 15.34377556    11

Suivez STARLINK-4263 en temps réel avec AllMySat

Download on the App Store